Home > Weather > Butte > Past weeks

Flag for U.S.A. Weather for the Past 2 Weeks in Butte, Montana, U.S.A.

Now
35 °F

Sunny.


Feels Like: 29 °F
Forecast: 15 / 27 °F
Wind: 7 mph from West

Location: Mooney Airport

Current Time: Feb 5, 2016 at 6:30:53 PM

Latest Report: Feb 5, 2016 at 4:53 PM


Visibility: 10 mi

Pressure: 30.40 "Hg (24.66 "Hg at 1685m altitude)

Humidity: 54%

Dew point: 20 °F

Location of ButteLocation

Historic Weather in Butte — Graph

°F

Butte Temperature Yesterday

Maximum temperature yesterday: 33 °F (at 2:53 PM)
Minimum temperature yesterday: 16 °F (at 12:53 AM)
Average temperature yesterday: 26 °F

High & Low Weather Summary for the Past Weeks

 TemperatureHumidityPressure
High41 °F (Jan 28, 2:53 PM)96% (Jan 24, 9:53 AM)30.63 "Hg (Jan 24, 9:53 AM)
Low-12 °F (Feb 3, 7:53 AM)46% (Jan 31, 3:53 PM)29.60 "Hg (Jan 29, 7:00 PM)
Average19 °F77%30.17 "Hg
* Reported Jan 21 4:53 PM — Feb 5 4:53 PM, Butte, Weather by CustomWeather, © 2016

Note: Actual official high and low records may vary slightly from our data, if they occured in-between our weather recording intervals... More about our weather records

Advertising

Butte Weather History for the Previous 24 Hours

 ConditionsComfort  
Time TempWeatherWind HumidityBarometerVisibility
4:53 PM
Fri, Feb 5
35 °FSunny.7 mph54%30.40 "Hg10 mi
3:53 PM39 °FSunny.3 mph48%30.40 "Hg10 mi
2:53 PM38 °FSunny.6 mph51%30.41 "Hg10 mi
1:53 PM36 °FSunny.6 mph52%30.41 "HgN/A
12:53 PM34 °FSunny.5 mph56%30.42 "Hg10 mi
11:53 AM33 °FSunny.6 mph54%30.44 "Hg10 mi
10:53 AM25 °FOvercast.5 mph69%30.49 "Hg10 mi
9:53 AM16 °FPartly sunny.No wind80%30.54 "Hg10 mi
8:53 AM15 °FPassing clouds.No wind80%30.55 "Hg10 mi
7:53 AM15 °FOvercast.3 mph80%30.54 "Hg10 mi
6:53 AM12 °FOvercast.No wind80%30.55 "Hg10 mi
5:53 AM10 °FClear.5 mph84%30.55 "Hg10 mi
4:53 AM15 °FPassing clouds.No wind80%30.52 "Hg10 mi
3:53 AM15 °FClear.No wind80%30.50 "Hg10 mi
2:53 AM14 °FPassing clouds.No wind80%30.49 "Hg10 mi
1:53 AM22 °FOvercast.5 mph72%30.44 "HgN/A
12:53 AM26 °FOvercast.3 mph66%30.42 "HgN/A
11:53 PM
Thu, Feb 4
25 °FPassing clouds.5 mph66%30.42 "HgN/A
10:53 PM26 °FPassing clouds.3 mph63%30.42 "HgN/A
9:53 PM25 °FOvercast.6 mph63%30.40 "HgN/A
8:53 PM25 °FPassing clouds.No wind63%30.40 "HgN/A
7:53 PM26 °FPassing clouds.No wind63%30.36 "HgN/A
6:53 PM29 °FOvercast.9 mph61%30.31 "HgN/A
Weather by CustomWeather, © 2016

See weather overviewHow to use our weather pages